Printer-friendly version

IAU Minor Planet Center

Minor Planet Center

MPEC 2005-R07 : 2005 QF88

The following Minor Planet Electronic Circular may be linked-to from your own Web pages, but must not otherwise be redistributed electronically.


Read MPEC 2005-R06 Read MPEC 2005-R08


M.P.E.C. 2005-R07                                Issued 2005 Sept. 1, 23:08 UT

     The Minor Planet Electronic Circulars contain information on unusual
         minor planets and routine data on comets.  They are published
   on behalf of Commission 20 of the International Astronomical Union by the
          Minor Planet Center, Smithsonian Astrophysical Observatory,
                          Cambridge, MA 02138, U.S.A.

                  Supported in part by the Brinson Foundation
             Prepared using the Tamkin Foundation Computer Network

                              MPC@CFA.HARVARD.EDU
          URL http://cfa-www.harvard.edu/iau/mpc.html  ISSN 1523-6714

                                   2005 QF88

Observations:
     K05Q88F* C2005 08 31.27827 00 16 27.43 +12 32 31.2          18.4   ER007704
     K05Q88F  C2005 08 31.28924 00 16 29.27 +12 32 25.7          18.7   ER007704
     K05Q88F  C2005 08 31.31128 00 16 32.91 +12 32 14.3          19.1   ER007704
     K05Q88F  C2005 08 31.32267 00 16 34.80 +12 32 06.6          18.6   ER007704
     K05Q88F  C2005 08 31.33110 00 16 36.31 +12 32 01.2          20.1 R ER007683
     K05Q88F  C2005 08 31.34477 00 16 38.53 +12 31 53.8          20.9 R ER007683
     K05Q88F  C2005 08 31.35851 00 16 40.78 +12 31 47.8          20.1 R ER007683
     K05Q88F  C2005 08 31.88679 00 18 15.03 +12 26 34.1          19.1 V ER007151
     K05Q88F  C2005 08 31.88903 00 18 15.45 +12 26 33.5          19.2 V ER007151
     K05Q88F  C2005 08 31.89047 00 18 15.72 +12 26 33.1          19.1 V ER007151
     K05Q88F  C2005 08 31.89082 00 18 15.80 +12 26 33.2          19.3 V ER007151
     K05Q88F  C2005 08 31.97793 00 18 30.50 +12 25 42.7          19.4 V ER007A13
     K05Q88F  C2005 08 31.97990 00 18 30.78 +12 25 41.3          19.2 V ER007A13
     K05Q88F  C2005 08 31.98179 00 18 31.13 +12 25 40.3          19.1 V ER007A13
     K05Q88F  C2005 08 31.99579 00 18 33.37 +12 25 31.7          19.2 V ER007A13
     K05Q88F  C2005 09 01.06164 00 18 43.97 +12 24 53.3          19.5 R ER007461
     K05Q88F  C2005 09 01.06328 00 18 44.23 +12 24 51.8                 ER007461
     K05Q88F  C2005 09 01.06490 00 18 44.54 +12 24 50.9                 ER007461
     K05Q88F  C2005 09 01.18948 00 19 06.98 +12 24 15.1          19.0 R ER007I77
     K05Q88F  C2005 09 01.19471 00 19 07.79 +12 24 11.8          18.7 R ER007I77
     K05Q88F  C2005 09 01.19891 00 19 08.46 +12 24 09.1          18.5 R ER007I77
     K05Q88F  C2005 09 01.25069 00 19 19.27 +12 23 02.3                 ER007682
     K05Q88F  C2005 09 01.27378 00 19 23.23 +12 22 49.9                 ER007682
     K05Q88F  C2005 09 01.29689 00 19 26.99 +12 22 35.8                 ER007682
     K05Q88F  C2005 09 01.32023 00 19 30.71 +12 22 25.5          18.7 R ER007651
     K05Q88F  C2005 09 01.32133 00 19 30.90 +12 22 24.9          18.7 R ER007651
     K05Q88F  C2005 09 01.32243 00 19 31.10 +12 22 24.6          18.7 R ER007651
     K05Q88F 2C2005 09 01.32857 00 19 31.93 +12 22 20.7          19.0 R ER007H06
     K05Q88F 2C2005 09 01.33441 00 19 32.83 +12 22 16.3          19.1 R ER007H06
     K05Q88F 5C2005 09 01.35058 00 19 35.88 +12 22 05.1          19.0 R ER007673
     K05Q88F 5C2005 09 01.35231 00 19 36.16 +12 22 04.5                 ER007673
     K05Q88F 5C2005 09 01.35810 00 19 37.15 +12 22 00.9                 ER007673
     K05Q88F 5C2005 09 01.36481 00 19 38.23 +12 21 56.7                 ER007673

Observer details:
151 Eschenberg Observatory, Winterthur.  Observer M. Griesser.  0.40-m f/5.9
    Hypergraph + CCD.
461 Szeged University, Piszkesteto Stn. (Konkoly).  Observers K. Sarneczky,
    Z. Kuli.  Measurer K. Sarneczky.  0.60-m Schmidt + CCD.
651 Grasslands Observatory, Tucson.  Observer J. E. McGaha.  0.62-m f/5.1
    Newtonian reflector + CCD.
673 Table Mountain Observatory, Wrightwood.  Observer J. Young.  0.6-m f/16
    Cassegrain + CCD.
682 Kanab.  Observer E. Sheridan.  0.36-m Schmidt-Cassegrain + CCD.
683 Goodricke-Pigott Observatory, Tucson.  Observer R. Tucker.  0.35-m
    reflector + CCD.
704 Lincoln Laboratory ETS, New Mexico.  Observers M. Bezpalko, L. Manguso,
    D. Torres, R. Kracke, A. Milner.  1.0-m f/2.15 reflector + CCD.
A13 Observatoire Naef, Marly.  Observer P. Kocher.  0.5-m f/3.3 Hypergraph
    + CCD.
H06 New Mexico Skies Observatory.  Observer R. Hutsebaut.  0.25-m reflector
    + CCD.
I77 CEAMIG-REA Observatory, Belo Horizonte.  Observers C. Jacques, E. Pimentel.
    Measurer C. Jacques.  0.30-m f/3.0 Schmidt-Cassegrain + CCD.

Orbital elements:
2005 QF88
Epoch 2005 Aug. 18.0 TT = JDT 2453600.5                 MPC
M 351.97285              (2000.0)            P               Q
n   0.29368037     Peri.  175.65805     +0.99761048     +0.06908457
a   2.2415724      Node   180.38333     -0.06646183     +0.95641927
e   0.4569296      Incl.    6.92048     -0.01887200     +0.28370671
P   3.36           H   20.8           G   0.15
From 32 observations 2005 Aug. 31-Sept. 1.

Ephemeris:
2005 QF88                a,e,i = 2.24, 0.46, 7                   q = 1.2173
Date    TT    R. A. (2000) Decl.     Delta      r     Elong.  Phase     V
2005 08 28    00 06.79   +12 58.2    0.256    1.231   146.2    27.1    19.5
2005 09 07    00 35.98   +11 10.8    0.236    1.220   151.0    23.6    19.2
2005 09 17    01 03.09   +08 06.0    0.228    1.218   156.5    19.2    19.0
2005 09 27    01 25.76   +04 19.5    0.232    1.225   162.0    14.7    18.9
2005 10 07    01 42.65   +00 39.4    0.247    1.240   166.2    11.1    18.9
2005 10 17    01 54.33   -02 11.7    0.274    1.264   166.8    10.4    19.2
2005 10 27    02 02.34   -03 53.8    0.312    1.296   163.4    12.7    19.6
2005 11 06    02 08.50   -04 26.4    0.362    1.334   157.8    16.3    20.1
2005 11 16    02 14.53   -04 00.0    0.425    1.377   151.4    20.1    20.6
2005 11 26    02 21.41   -02 50.9    0.500    1.425   144.9    23.5    21.2
2005 12 06    02 29.64   -01 13.6    0.587    1.477   138.4    26.3    21.7

Timothy B. Spahr             (C) Copyright 2005 MPC           M.P.E.C. 2005-R07

Read MPEC 2005-R06 Read MPEC 2005-R08


Our Web policy. Index to the CBAT/MPC/ICQ pages.


Valid HTML 4.01!